sim
Sign-in with your pilot id or email,
or register
Callsign
Passwort

Schedule Details

Flight Number: OEF9156
Departure: Toronto Pearson International Airport (CYYZ) at 15:05
Arrival: Los Angeles International Airport (KLAX) at 19:50

Weather Information
Getting current METAR information for CYYZ 222307Z 09007KT 12SM -SHRA SCT047 BKN055 BKN090 BKN250 21/15 A2986 RMK CU3SC2AC1CI1 SLP113 DENSITY ALT 1500FT
Getting current METAR information for KLAX 222253Z 26012KT 10SM FEW040 FEW095 SCT150 SCT200 23/17 A2995 RMK AO2 SLP141 CB DSNT E T02330167 $

Schedule Frequency

Route Map